Regional Weather Roundup
Issued by NWS Cleveland, OH

Home | Current Version | Previous Version | Graphics & Text | Print | Product List | Glossary On
Versions: 1 2 3 4 5 6 7 8 9 10 11 12 13 14 15 16 17 18 19 20 21 22 23 24 25 26 27 28 29 30 31 32 33 34 35 36 37 38 39 40 41 42 43 44 45 46 47 48 49 50
499
ASUS41 KCLE 280110
RWRCLE
OHIO REGIONAL WEATHER ROUNDUP
NATIONAL WEATHER SERVICE CLEVELAND, OH
800 PM EST MON FEB 27 2017

NOTE: "FAIR" INDICATES FEW OR NO CLOUDS BELOW 12,000 FEET WITH NO
SIGNIFICANT WEATHER AND/OR OBSTRUCTIONS TO VISIBILITY.

OHZ001>008-015>018-024>027-034-035-043-044-280200-
   NORTHWEST OHIO

CITY           SKY/WX    TMP DP  RH WIND       PRES   REMARKS
DEFIANCE       CLEAR     43  36  76 S5        30.18R
FINDLAY        PTCLDY    42  36  79 SE9       30.19S
TOLEDO EXPRESS CLEAR     43  38  82 S7        30.19R
TOLEDO EXEC    PTCLDY    43  38  82 S7        30.21S
LIMA           CLOUDY    44  40  85 SE9       30.19R
$$

OHZ009>014-019>023-028>033-038-089-280200-
   NORTHEAST OHIO

CITY           SKY/WX    TMP DP  RH WIND       PRES   REMARKS
CLE-HOPKINS    CLOUDY    45  35  68 S10       30.26S
CLE-LAKEFRONT  CLOUDY    46  35  65 SE10      30.23F
CUY CO. ARPT   CLOUDY    45  34  65 S7        30.24F
LORAIN-ELYRIA  CLOUDY    42  34  73 S12       30.23S
ASHTABULA      CLOUDY    43  30  60 SE6       30.26S
AKRON-CANTON   CLOUDY    42  35  76 S8        30.25S
WOOSTER        CLOUDY    40  36  86 S6        30.25S
MANSFIELD      CLOUDY    41  37  86 SE8       30.22S
YOUNGSTOWN     CLOUDY    41  35  79 SE9       30.26S
$$

OHZ042-051>053-060>062-070>072-077>081-280200-
  SOUTHWEST OHIO

CITY           SKY/WX    TMP DP  RH WIND       PRES   REMARKS
CINC-COVINGTON PTCLDY    45  41  86 E5        30.18S
CINC-LUNKEN    CLOUDY    43  41  93 CALM      30.21S
HAMILTON       PTCLDY    42  41  96 E3        30.21R
DAYTON         MOCLDY    42  40  92 S6        30.21R
WRIGHT-PAT AFB CLOUDY    45  44  94 SE7       30.20R
DAYTON GENERAL CLOUDY    44  41  89 SE6       30.19R
WILMINGTON     MOCLDY    43  40  89 SE9       30.20S
$$

OHZ036-037-039>041-045>050-054>059-063>069-073>076-082>088-280200-
  CENTRAL AND SOUTHEAST OHIO

CITY           SKY/WX    TMP DP  RH WIND       PRES   REMARKS
COLUMBUS       CLOUDY    46  41  82 SE7       30.23S
OSU AIRPORT    CLOUDY    44  41  89 SE7       30.22S
BOLTON FIELD   CLOUDY    42  41  95 SE5       30.23S
RICKENBACK AFB CLOUDY    42  41  97 SE6       30.23R
NEWARK         CLOUDY    43  40  89 CALM      30.24R
MARION         CLOUDY    43  38  82 SE8       30.22S
LANCASTER      MOCLDY    44  41  89 SE3       30.24S
ZANESVILLE     CLOUDY    43  40  89 CALM      30.25S
NEW PHILLY     NOT AVBL
$$




USA.gov is the U.S. government's official web portal to all federal, state and local government web resources and services.